DW9931 Weather Reports


time (UTC)temp
C
wind
direction
speed
KPH
gust
KPH
rain 1hr
cm
rain 24hr
cm
rain mn
cm
humidity
%
barometer
mb
20260505153007 17 312 4.8 17.7 0.00 0.00 0.00 65 1008.2
20260505151505 17 304 6.4 16.1 0.00 0.00 0.00 66 1008.1
20260505124534 -17 0.0 0.0 0.00 0.00 0.00 1006.4
20260505123050 -17 0.0 0.0 0.00 0.00 0.00 1006.2
20260505121525 -17 0.0 0.0 0.00 0.00 0.00 1006.1
20260505120027 -17 0.0 0.0 0.00 0.00 0.00 1006.0
20260505114516 -17 0.0 0.0 0.00 0.00 0.00 1005.9
20260505113012 -17 0.0 0.0 0.00 0.00 0.00 1005.8
20260505111508 -17 0.0 0.0 0.00 0.00 0.00 1005.7
20260505101550 -17 0.0 0.0 0.00 0.00 0.00 1005.1
20260505100048 -17 0.0 0.0 0.00 0.00 0.00 1005.0
20260505094545 -17 0.0 0.0 0.00 0.00 0.00 1004.9
20260505093040 17 210 0.0 4.8 0.00 0.00 0.00 66 1004.9
20260505091538 17 225 1.6 8.0 0.00 0.00 0.00 65 1004.9
20260505090042 17 201 0.0 9.7 0.00 0.00 0.00 64 1004.7
20260505084536 17 180 0.0 11.3 0.00 0.00 0.00 64 1004.6
20260505083044 17 204 3.2 6.4 0.00 0.00 0.00 64 1004.7
20260505081534 17 205 0.0 3.2 0.00 0.00 0.00 62 1004.7
20260505080036 17 194 0.0 4.8 0.00 0.00 0.00 63 1004.4
20260505074526 17 219 1.6 6.4 0.00 0.00 0.00 63 1004.3
20260505073023 17 205 0.0 4.8 0.00 0.00 0.00 61 1004.2
20260505071521 17 215 0.0 1.6 0.00 0.00 0.00 59 1004.1
20260505070018 18 201 0.0 0.0 0.00 0.00 0.00 56 1004.1
20260505064516 18 208 1.6 6.4 0.00 0.00 0.00 55 1003.8
20260505063016 18 188 0.0 0.0 0.00 0.00 0.00 53 1003.8
20260505061528 18 198 0.0 0.0 0.00 0.00 0.00 50 1003.6
20260505060015 19 233 0.0 4.8 0.00 0.00 0.00 49 1003.6
20260505054514 18 200 0.0 0.0 0.00 0.00 0.00 49 1003.3
20260505053016 18 174 0.0 1.6 0.00 0.00 0.00 50 1003.3
20260505051514 19 164 0.0 4.8 0.00 0.00 0.00 49 1003.0
20260505041515 20 155 0.0 3.2 0.00 0.00 0.00 44 1002.7
20260505040012 21 181 0.0 0.0 0.00 0.00 0.00 35 1002.5
20260505034608 22 148 0.0 0.0 0.00 0.00 0.00 36 1002.2
20260505033008 23 155 0.0 0.0 0.00 0.00 0.00 34 1002.0
20260505031508 25 56 0.0 0.0 0.00 0.00 0.00 30 1002.0
20260505030007 26 56 0.0 0.0 0.00 0.00 0.00 30 1001.9
20260505024517 28 56 0.0 0.0 0.00 0.00 0.00 28 1001.9
20260505023005 28 57 0.0 0.0 0.00 0.00 0.00 26 1001.9
20260505021506 28 56 0.0 0.0 0.00 0.00 0.00 25 1001.9
20260505020004 28 51 0.0 6.4 0.00 0.00 0.00 24 1002.1
20260505014501 28 50 1.6 14.5 0.00 0.00 0.00 23 1002.2
20260505013102 28 18 6.4 17.7 0.00 0.00 0.00 23 1002.3
20260505011600 28 56 14.5 25.7 0.00 0.00 0.00 24 1002.3
20260505010058 28 54 8.0 19.3 0.00 0.00 0.00 23 1002.5
20260505004557 28 9 6.4 12.9 0.00 0.00 0.00 22 1002.5
20260505003058 29 87 6.4 19.3 0.00 0.00 0.00 23 1002.6
20260505001556 29 54 0.0 17.7 0.00 0.00 0.00 22 1002.7
20260504234610 28 65 9.7 19.3 0.00 0.00 0.00 23 1002.6
20260504233050 28 4 4.8 17.7 0.00 0.00 0.00 25 1002.7
20260504231559 28 72 0.0 16.1 0.00 0.00 0.00 22 1002.9
20260504230046 28 32 6.4 14.5 0.00 0.00 0.00 22 1003.1
20260504224542 28 93 0.0 16.1 0.00 0.00 0.00 23 1003.2
20260504223040 28 110 0.0 17.7 0.00 0.00 0.00 22 1003.4
20260504221540 28 331 6.4 22.5 0.00 0.00 0.00 25 1003.5
20260504220036 27 353 11.3 19.3 0.00 0.00 0.00 24 1003.8
20260504214531 28 338 9.7 30.6 0.00 0.00 0.00 26 1003.9
20260504213028 27 328 16.1 24.1 0.00 0.00 0.00 31 1004.0
20260504211528 27 74 3.2 16.1 0.00 0.00 0.00 30 1004.3
20260504210024 27 359 6.4 20.9 0.00 0.00 0.00 32 1004.5
20260504204518 26 332 3.2 19.3 0.00 0.00 0.00 31 1004.7
20260504203022 26 338 8.0 16.1 0.00 0.00 0.00 33 1004.9
20260504201511 25 333 4.8 17.7 0.00 0.00 0.00 37 1004.9
20260504200009 25 236 0.0 9.7 0.00 0.00 0.00 38 1005.0
20260504194508 25 339 9.7 16.1 0.00 0.00 0.00 39 1005.2
20260504193002 25 290 0.0 17.7 0.00 0.00 0.00 39 1005.3
20260504191559 23 356 8.0 12.9 0.00 0.00 0.00 38 1005.4
20260504190125 23 329 0.0 11.3 0.00 0.00 0.00 39 1005.5
20260504184557 23 290 0.0 11.3 0.00 0.00 0.00 40 1005.6
20260504183049 23 248 0.0 9.7 0.00 0.00 0.00 40 1005.7
20260504181550 22 302 1.6 9.7 0.00 0.00 0.00 40 1005.8
20260504180115 21 257 0.0 11.3 0.00 0.00 0.00 43 1006.0
20260504174542 21 295 1.6 8.0 0.00 0.00 0.00 45 1006.0
20260504173041 21 292 3.2 8.0 0.00 0.00 0.00 46 1006.1
20260504171536 20 290 4.8 11.3 0.00 0.00 0.00 47 1006.1